CFG5LW EDDF-LGSK

Flight info

Callsign CFG5LW
Flight time 2h 5m
Altitude 37000
Route CINDY8S/18 CINDY Z74 LAMPU DCT NOMBO Y161 MAH DCT VAVOR DCT RADIZ DCT GORPA DCT DEVUL DCT REMSO DCT MEDUX UM867 KOGAT DCT ERANA UL737 TSL
Aircraft A320/M-SDE3FGHIRWY/LB1

Departure

Time 2026-05-09 08:30
Airport Frankfurt Main Airport (EDDF)

Arrival

Time 2026-05-09 10:36
Airport Skiathos Island National Airport (LGSK)
Time Latitude Longitude Altitude Speed Heading
2026-05-09 07:58 50.04917 8.57089 356 ft 0 kts 97°
2026-05-09 08:19 50.04911 8.57103 358 ft 5 kts 131°
2026-05-09 08:19 50.04874 8.57083 363 ft 6 kts 195°
2026-05-09 08:20 50.04836 8.57065 356 ft 5 kts 200°
2026-05-09 08:20 50.04803 8.57042 357 ft 9 kts 204°
2026-05-09 08:20 50.04718 8.56981 359 ft 14 kts 205°
2026-05-09 08:20 50.04652 8.56932 362 ft 7 kts 205°
2026-05-09 08:21 50.04628 8.56917 359 ft 0 kts 193°
2026-05-09 08:22 50.04609 8.56911 356 ft 11 kts 192°
2026-05-09 08:22 50.04492 8.56869 359 ft 16 kts 194°
2026-05-09 08:23 50.04431 8.56753 360 ft 14 kts 250°
2026-05-09 08:23 50.04398 8.56604 361 ft 18 kts 248°
2026-05-09 08:23 50.04355 8.56420 362 ft 16 kts 249°
2026-05-09 08:23 50.04327 8.56306 355 ft 9 kts 249°
2026-05-09 08:24 50.04308 8.56229 358 ft 5 kts 250°
2026-05-09 08:24 50.04299 8.56187 358 ft 4 kts 250°
2026-05-09 08:24 50.04265 8.56049 359 ft 23 kts 250°
2026-05-09 08:24 50.04198 8.55767 353 ft 28 kts 250°
2026-05-09 08:25 50.04136 8.55505 354 ft 24 kts 249°
2026-05-09 08:25 50.04083 8.55284 355 ft 20 kts 249°
2026-05-09 08:25 50.04039 8.55100 360 ft 18 kts 250°
2026-05-09 08:25 50.03986 8.54882 354 ft 26 kts 249°
2026-05-09 08:26 50.03918 8.54596 351 ft 30 kts 250°
2026-05-09 08:26 50.03833 8.54306 350 ft 27 kts 233°
2026-05-09 08:26 50.03755 8.54033 349 ft 29 kts 250°
2026-05-09 08:26 50.03683 8.53733 345 ft 30 kts 249°
2026-05-09 08:27 50.03606 8.53425 336 ft 31 kts 249°
2026-05-09 08:27 50.03534 8.53125 334 ft 29 kts 249°
2026-05-09 08:27 50.03466 8.52851 337 ft 16 kts 246°
2026-05-09 08:27 50.03431 8.52724 332 ft 7 kts 250°
2026-05-09 08:28 50.03424 8.52693 335 ft 2 kts 250°
2026-05-09 08:28 50.03414 8.52649 334 ft 9 kts 249°
2026-05-09 08:28 50.03373 8.52593 334 ft 8 kts 184°
2026-05-09 08:28 50.03366 8.52593 335 ft 0 kts 179°
2026-05-09 08:29 50.03297 8.52594 332 ft 35 kts 180°
2026-05-09 08:30 50.02785 8.52600 333 ft 108 kts 180°
2026-05-09 08:30 50.01835 8.52611 333 ft 163 kts 179°
2026-05-09 08:30 50.00617 8.52663 729 ft 177 kts 176°
2026-05-09 08:30 49.99366 8.52691 1477 ft 179 kts 177°
2026-05-09 08:31 49.98138 8.52708 2284 ft 179 kts 174°
2026-05-09 08:31 49.96885 8.53207 2619 ft 196 kts 148°
2026-05-09 08:31 49.95855 8.54682 2997 ft 211 kts 118°
2026-05-09 08:31 49.95153 8.56770 3535 ft 223 kts 117°
2026-05-09 08:32 49.94430 8.58912 4299 ft 226 kts 115°
2026-05-09 08:32 49.94027 8.61279 4915 ft 240 kts 97°
2026-05-09 08:32 49.93849 8.65149 5569 ft 268 kts 95°
2026-05-09 08:33 49.93536 8.68041 6308 ft 276 kts 112°
2026-05-09 08:33 49.92561 8.70610 7065 ft 280 kts 134°
2026-05-09 08:33 49.91081 8.72541 7941 ft 278 kts 148°
2026-05-09 08:33 49.89496 8.74288 8828 ft 281 kts 143°
2026-05-09 08:34 49.88122 8.76488 9686 ft 287 kts 128°
2026-05-09 08:34 49.87085 8.79171 10435 ft 296 kts 121°
2026-05-09 08:34 49.86047 8.82066 10695 ft 319 kts 120°
2026-05-09 08:34 49.84925 8.85179 10928 ft 342 kts 121°
2026-05-09 08:35 49.83740 8.88454 11444 ft 353 kts 121°
2026-05-09 08:35 49.82529 8.91792 12124 ft 358 kts 121°
2026-05-09 08:35 49.81301 8.95171 12842 ft 363 kts 120°
2026-05-09 08:35 49.80056 8.98592 13539 ft 367 kts 120°
2026-05-09 08:36 49.78796 9.02051 14220 ft 371 kts 120°
2026-05-09 08:36 49.77520 9.05549 14849 ft 375 kts 120°
2026-05-09 08:36 49.76340 9.09164 15450 ft 380 kts 112°
2026-05-09 08:36 49.75569 9.13094 16071 ft 384 kts 104°
2026-05-09 08:37 49.74750 9.17032 16723 ft 386 kts 114°
2026-05-09 08:37 49.73462 9.20692 17322 ft 390 kts 124°
2026-05-09 08:37 49.71754 9.23958 17959 ft 393 kts 132°
2026-05-09 08:37 49.69937 9.27139 18544 ft 396 kts 131°
2026-05-09 08:38 49.68138 9.30309 19100 ft 399 kts 131°
2026-05-09 08:38 49.66281 9.33587 19653 ft 402 kts 130°
2026-05-09 08:38 49.64433 9.36852 20219 ft 405 kts 130°
2026-05-09 08:38 49.62520 9.40063 20785 ft 408 kts 136°
2026-05-09 08:39 49.60336 9.42784 21290 ft 412 kts 146°
2026-05-09 08:39 49.57839 9.45127 21780 ft 416 kts 149°
2026-05-09 08:39 49.55371 9.47375 22298 ft 419 kts 149°
2026-05-09 08:39 49.52853 9.49671 22801 ft 422 kts 149°
2026-05-09 08:40 49.50282 9.52012 23297 ft 425 kts 149°
2026-05-09 08:40 49.47763 9.54306 23751 ft 428 kts 148°
2026-05-09 08:40 49.45154 9.56681 24131 ft 432 kts 148°
2026-05-09 08:40 49.42560 9.59040 24500 ft 434 kts 148°
2026-05-09 08:41 49.39953 9.61410 24861 ft 437 kts 148°
2026-05-09 08:41 49.37361 9.63763 25209 ft 440 kts 148°
2026-05-09 08:41 49.34759 9.66252 25556 ft 442 kts 143°
2026-05-09 08:41 49.32392 9.69270 25878 ft 444 kts 134°
2026-05-09 08:42 49.30204 9.72622 26208 ft 446 kts 133°
2026-05-09 08:42 49.28000 9.76000 26546 ft 449 kts 133°
2026-05-09 08:42 49.25790 9.79381 26875 ft 452 kts 133°
2026-05-09 08:42 49.23553 9.82792 27235 ft 454 kts 134°
2026-05-09 08:43 49.21315 9.86196 27574 ft 456 kts 134°
2026-05-09 08:43 49.19055 9.89624 27891 ft 458 kts 134°
2026-05-09 08:43 49.16787 9.93058 28200 ft 460 kts 134°
2026-05-09 08:43 49.14506 9.96509 28498 ft 463 kts 134°
2026-05-09 08:44 49.12217 9.99969 28784 ft 465 kts 134°
2026-05-09 08:44 49.09911 10.03448 29058 ft 467 kts 134°
2026-05-09 08:44 49.07594 10.06939 29295 ft 470 kts 135°
2026-05-09 08:44 49.05257 10.10445 29524 ft 473 kts 135°
2026-05-09 08:45 49.02876 10.13913 29763 ft 475 kts 136°
2026-05-09 08:45 49.00452 10.17344 30020 ft 477 kts 138°
2026-05-09 08:45 48.98002 10.20752 30311 ft 477 kts 138°
2026-05-09 08:45 48.95551 10.24143 30608 ft 476 kts 138°
2026-05-09 08:46 48.93103 10.27538 30878 ft 476 kts 138°
2026-05-09 08:46 48.90664 10.30951 31149 ft 476 kts 138°
2026-05-09 08:46 48.88237 10.34370 31412 ft 477 kts 138°
2026-05-09 08:46 48.85808 10.37802 31688 ft 477 kts 138°
2026-05-09 08:47 48.83375 10.41238 31951 ft 477 kts 137°
2026-05-09 08:47 48.80982 10.44739 32160 ft 479 kts 136°
2026-05-09 08:47 48.78652 10.48363 32404 ft 481 kts 135°
2026-05-09 08:47 48.76368 10.52070 32674 ft 481 kts 135°
2026-05-09 08:48 48.74107 10.55813 32915 ft 482 kts 134°
2026-05-09 08:48 48.71843 10.59557 33171 ft 482 kts 135°
2026-05-09 08:48 48.69561 10.63284 33438 ft 483 kts 135°
2026-05-09 08:48 48.67261 10.66992 33700 ft 483 kts 136°
2026-05-09 08:49 48.64948 10.70678 33966 ft 483 kts 136°
2026-05-09 08:49 48.62625 10.74346 34220 ft 483 kts 136°
2026-05-09 08:49 48.60295 10.78007 34454 ft 483 kts 136°
2026-05-09 08:49 48.57966 10.81663 34695 ft 483 kts 136°
2026-05-09 08:50 48.55651 10.85323 34897 ft 483 kts 136°
2026-05-09 08:50 48.53343 10.89012 35129 ft 483 kts 136°
2026-05-09 08:50 48.51043 10.92702 35344 ft 483 kts 136°
2026-05-09 08:50 48.48745 10.96384 35580 ft 482 kts 136°
2026-05-09 08:51 48.46436 11.00048 35801 ft 481 kts 136°
2026-05-09 08:51 48.44121 11.03680 36027 ft 480 kts 136°
2026-05-09 08:51 48.41801 11.07287 36245 ft 480 kts 136°
2026-05-09 08:51 48.39476 11.10884 36448 ft 479 kts 136°
2026-05-09 08:52 48.37151 11.14473 36657 ft 478 kts 136°
2026-05-09 08:52 48.34836 11.18053 36865 ft 478 kts 136°
2026-05-09 08:52 48.32522 11.21637 37066 ft 477 kts 136°
2026-05-09 08:52 48.30301 11.25077 37261 ft 476 kts 136°
2026-05-09 08:53 48.28011 11.28625 37467 ft 475 kts 135°
2026-05-09 08:53 48.25934 11.32459 37655 ft 477 kts 126°
2026-05-09 08:53 48.24210 11.36710 37833 ft 477 kts 121°
2026-05-09 08:53 48.22554 11.41023 38019 ft 476 kts 121°
2026-05-09 08:54 48.20900 11.45315 38124 ft 477 kts 121°
2026-05-09 08:54 48.17594 11.53859 38131 ft 477 kts 122°
2026-05-09 08:55 48.14324 11.62259 38126 ft 477 kts 122°
2026-05-09 08:55 48.10977 11.70831 38129 ft 477 kts 122°
2026-05-09 08:56 48.07630 11.79389 38127 ft 477 kts 122°
2026-05-09 08:56 48.04282 11.87950 38129 ft 477 kts 122°
2026-05-09 08:57 48.01486 11.95062 38111 ft 478 kts 122°
2026-05-09 08:57 47.98103 12.03608 38128 ft 479 kts 122°
2026-05-09 08:58 47.94684 12.12131 38135 ft 478 kts 126°
2026-05-09 08:58 47.90269 12.19431 38138 ft 472 kts 143°
2026-05-09 08:59 47.85236 12.25717 38144 ft 473 kts 143°
2026-05-09 08:59 47.80196 12.32007 38148 ft 473 kts 143°
2026-05-09 09:00 47.75155 12.38295 38132 ft 473 kts 143°
2026-05-09 09:00 47.70112 12.44564 38143 ft 473 kts 143°
2026-05-09 09:01 47.65063 12.50829 38148 ft 473 kts 143°
2026-05-09 09:01 47.60326 12.57529 38150 ft 476 kts 135°
2026-05-09 09:02 47.55835 12.64729 38148 ft 476 kts 135°
2026-05-09 09:02 47.51343 12.71894 38128 ft 475 kts 136°
2026-05-09 09:03 47.46830 12.79053 38136 ft 476 kts 136°
2026-05-09 09:03 47.42311 12.86214 38139 ft 477 kts 136°
2026-05-09 09:04 47.37788 12.93367 38143 ft 477 kts 136°
2026-05-09 09:04 47.33263 13.00503 38139 ft 476 kts 136°
2026-05-09 09:05 47.28728 13.07624 38157 ft 477 kts 136°
2026-05-09 09:05 47.24180 13.14758 38136 ft 478 kts 136°
2026-05-09 09:06 47.19631 13.21872 38144 ft 477 kts 136°
2026-05-09 09:06 47.15074 13.28979 38148 ft 478 kts 136°
2026-05-09 09:07 47.10508 13.36071 38139 ft 478 kts 136°
2026-05-09 09:07 47.05944 13.43154 38141 ft 478 kts 136°
2026-05-09 09:08 47.01370 13.50231 38143 ft 478 kts 137°
2026-05-09 09:08 46.96787 13.57299 38132 ft 479 kts 137°
2026-05-09 09:09 46.92225 13.64323 38134 ft 479 kts 137°
2026-05-09 09:09 46.87634 13.71388 38138 ft 479 kts 137°
2026-05-09 09:10 46.83027 13.78439 38139 ft 479 kts 137°
2026-05-09 09:10 46.78424 13.85464 38135 ft 479 kts 137°
2026-05-09 09:11 46.73826 13.92452 38110 ft 479 kts 137°
2026-05-09 09:11 46.69213 13.99449 38126 ft 478 kts 137°
2026-05-09 09:12 46.64604 14.06442 38139 ft 478 kts 137°
2026-05-09 09:12 46.59990 14.13426 38149 ft 478 kts 137°
2026-05-09 09:13 46.55371 14.20380 38152 ft 478 kts 137°
2026-05-09 09:13 46.50745 14.27327 38142 ft 478 kts 137°
2026-05-09 09:14 46.46123 14.34259 38126 ft 478 kts 137°
2026-05-09 09:14 46.41492 14.41172 38138 ft 477 kts 137°
2026-05-09 09:15 46.36865 14.48064 38126 ft 477 kts 137°
2026-05-09 09:15 46.32242 14.54943 38129 ft 477 kts 137°
2026-05-09 09:16 46.27612 14.61822 38130 ft 477 kts 138°
2026-05-09 09:16 46.20651 14.72121 38112 ft 478 kts 138°
2026-05-09 09:17 46.16002 14.78971 38121 ft 477 kts 138°
2026-05-09 09:17 46.11344 14.85805 38128 ft 478 kts 138°
2026-05-09 09:18 46.06687 14.92631 38131 ft 478 kts 138°
2026-05-09 09:18 46.02027 14.99453 38131 ft 478 kts 138°
2026-05-09 09:19 45.97396 15.06204 38130 ft 478 kts 138°
2026-05-09 09:19 45.92694 15.13043 38114 ft 478 kts 138°
2026-05-09 09:20 45.88048 15.19786 38111 ft 478 kts 138°
2026-05-09 09:20 45.83338 15.26612 38117 ft 478 kts 138°
2026-05-09 09:21 45.78662 15.33376 38124 ft 478 kts 138°
2026-05-09 09:21 45.74295 15.40506 38119 ft 480 kts 133°
2026-05-09 09:22 45.70028 15.47870 37814 ft 480 kts 133°
2026-05-09 09:22 45.67896 15.51539 37534 ft 480 kts 133°
2026-05-09 09:22 45.65764 15.55198 37257 ft 479 kts 133°
2026-05-09 09:23 45.63623 15.58860 37060 ft 478 kts 133°
2026-05-09 09:23 45.61486 15.62505 37116 ft 478 kts 133°
2026-05-09 09:23 45.57207 15.69782 37108 ft 478 kts 133°
2026-05-09 09:24 45.52931 15.77050 37101 ft 478 kts 133°
2026-05-09 09:24 45.48660 15.84318 37105 ft 478 kts 133°
2026-05-09 09:25 45.44392 15.91561 37078 ft 477 kts 133°
2026-05-09 09:25 45.40138 15.98741 37085 ft 477 kts 133°
2026-05-09 09:26 45.35851 16.05961 37087 ft 478 kts 133°
2026-05-09 09:26 45.31556 16.13177 37092 ft 478 kts 133°
2026-05-09 09:27 45.27264 16.20374 37097 ft 477 kts 133°
2026-05-09 09:27 45.22966 16.27560 37101 ft 477 kts 134°
2026-05-09 09:28 45.18668 16.34725 37098 ft 477 kts 134°
2026-05-09 09:28 45.14366 16.41882 37091 ft 477 kts 134°
2026-05-09 09:29 45.10028 16.48977 37094 ft 477 kts 135°
2026-05-09 09:29 45.05601 16.55961 37096 ft 476 kts 135°
2026-05-09 09:30 45.01158 16.62908 37098 ft 476 kts 135°
2026-05-09 09:30 44.96726 16.69866 37092 ft 477 kts 135°
2026-05-09 09:31 44.92308 16.76836 37076 ft 477 kts 135°
2026-05-09 09:32 44.85694 16.87236 37092 ft 477 kts 135°
2026-05-09 09:32 44.81243 16.94168 37098 ft 477 kts 135°
2026-05-09 09:33 44.76792 17.01087 37099 ft 477 kts 135°
2026-05-09 09:33 44.72346 17.08009 37106 ft 477 kts 135°
2026-05-09 09:34 44.67896 17.14915 37107 ft 476 kts 135°
2026-05-09 09:34 44.63446 17.21810 37101 ft 476 kts 135°
2026-05-09 09:36 44.45601 17.49271 37116 ft 476 kts 135°
2026-05-09 09:37 44.41129 17.56114 37112 ft 476 kts 135°
2026-05-09 09:37 44.36643 17.62942 37111 ft 477 kts 135°
2026-05-09 09:38 44.32151 17.69769 37112 ft 477 kts 135°
2026-05-09 09:38 44.27670 17.76579 37124 ft 477 kts 135°
2026-05-09 09:39 44.23167 17.83391 37118 ft 477 kts 135°
2026-05-09 09:39 44.18666 17.90191 37128 ft 477 kts 135°
2026-05-09 09:40 44.14163 17.96980 37117 ft 477 kts 136°
2026-05-09 09:40 44.09651 18.03756 37111 ft 477 kts 135°
2026-05-09 09:41 44.05135 18.10517 37121 ft 477 kts 135°
2026-05-09 09:41 44.00615 18.17281 37124 ft 478 kts 135°
2026-05-09 09:42 43.96122 18.23995 37130 ft 478 kts 135°
2026-05-09 09:42 43.91595 18.30743 37134 ft 478 kts 135°
2026-05-09 09:43 43.87063 18.37479 37119 ft 478 kts 136°
2026-05-09 09:43 43.82522 18.44195 37128 ft 478 kts 136°
2026-05-09 09:44 43.77976 18.50910 37130 ft 478 kts 136°
2026-05-09 09:44 43.73427 18.57611 37130 ft 478 kts 136°
2026-05-09 09:45 43.68883 18.64307 37127 ft 478 kts 136°
2026-05-09 09:45 43.64329 18.70995 37126 ft 478 kts 136°
2026-05-09 09:46 43.60507 18.76579 37107 ft 478 kts 136°
2026-05-09 09:46 43.55947 18.83241 37115 ft 478 kts 136°
2026-05-09 09:47 43.51411 18.89847 37118 ft 477 kts 136°
2026-05-09 09:47 43.46847 18.96485 37121 ft 477 kts 136°
2026-05-09 09:48 43.42321 19.03173 37120 ft 477 kts 135°
2026-05-09 09:48 43.37834 19.09906 37122 ft 477 kts 135°
2026-05-09 09:49 43.33337 19.16623 37102 ft 477 kts 135°
2026-05-09 09:49 43.28824 19.23311 37107 ft 477 kts 135°
2026-05-09 09:50 43.24304 19.29978 37108 ft 477 kts 135°
2026-05-09 09:50 43.19790 19.36650 37117 ft 477 kts 135°
2026-05-09 09:51 43.15268 19.43304 37113 ft 477 kts 135°
2026-05-09 09:51 43.10735 19.49933 37116 ft 477 kts 135°
2026-05-09 09:52 43.06202 19.56564 37108 ft 477 kts 135°
2026-05-09 09:52 43.01668 19.63187 37108 ft 477 kts 135°
2026-05-09 09:53 42.97134 19.69799 37100 ft 477 kts 135°
2026-05-09 09:53 42.92595 19.76408 37105 ft 477 kts 135°
2026-05-09 09:54 42.88047 19.83000 37099 ft 477 kts 135°
2026-05-09 09:54 42.83493 19.89578 37086 ft 477 kts 135°
2026-05-09 09:55 42.78969 19.96103 37098 ft 477 kts 135°
2026-05-09 09:55 42.74416 20.02675 37096 ft 477 kts 134°
2026-05-09 09:56 42.70083 20.09529 37097 ft 478 kts 130°
2026-05-09 09:56 42.65938 20.16609 37105 ft 479 kts 130°
2026-05-09 09:57 42.61770 20.23656 37094 ft 478 kts 130°
2026-05-09 09:57 42.57540 20.30616 37081 ft 478 kts 131°
2026-05-09 09:58 42.53285 20.37545 37085 ft 479 kts 131°
2026-05-09 09:58 42.49028 20.44478 37109 ft 478 kts 131°
2026-05-09 09:59 42.44778 20.51411 37107 ft 478 kts 131°
2026-05-09 09:59 42.40521 20.58332 37109 ft 478 kts 131°
2026-05-09 10:00 42.36262 20.65242 37100 ft 478 kts 131°
2026-05-09 10:00 42.32009 20.72147 37105 ft 478 kts 131°
2026-05-09 10:01 42.27747 20.79045 37091 ft 478 kts 131°
2026-05-09 10:01 42.23475 20.85930 37100 ft 478 kts 131°
2026-05-09 10:02 42.19203 20.92800 37090 ft 478 kts 131°
2026-05-09 10:02 42.14930 20.99663 37092 ft 478 kts 131°
2026-05-09 10:03 42.10579 21.06411 37084 ft 476 kts 137°
2026-05-09 10:03 42.05762 21.12527 37088 ft 476 kts 138°
2026-05-09 10:04 42.00941 21.18638 37074 ft 476 kts 138°
2026-05-09 10:04 41.96123 21.24741 37072 ft 476 kts 138°
2026-05-09 10:05 41.91303 21.30843 37068 ft 476 kts 138°
2026-05-09 10:05 41.86504 21.36894 37070 ft 476 kts 138°
2026-05-09 10:06 41.81669 21.42975 37071 ft 476 kts 138°
2026-05-09 10:06 41.76845 21.49045 37059 ft 477 kts 138°
2026-05-09 10:07 41.72001 21.55136 37058 ft 477 kts 139°
2026-05-09 10:07 41.67145 21.61203 37065 ft 478 kts 139°
2026-05-09 10:08 41.62273 21.67261 37061 ft 478 kts 139°
2026-05-09 10:08 41.57401 21.73320 37064 ft 479 kts 139°
2026-05-09 10:09 41.52527 21.79375 37078 ft 479 kts 139°
2026-05-09 10:09 41.47652 21.85429 37057 ft 479 kts 139°
2026-05-09 10:10 41.42769 21.91471 37062 ft 479 kts 139°
2026-05-09 10:10 41.37905 21.97469 37060 ft 480 kts 139°
2026-05-09 10:11 41.33000 22.03507 37068 ft 480 kts 139°
2026-05-09 10:11 41.28094 22.09529 37065 ft 480 kts 139°
2026-05-09 10:12 41.23238 22.15483 37061 ft 480 kts 139°
2026-05-09 10:12 41.18327 22.21503 37058 ft 480 kts 139°
2026-05-09 10:13 41.13341 22.27394 37058 ft 479 kts 142°
2026-05-09 10:13 41.08154 22.32942 37056 ft 479 kts 144°
2026-05-09 10:14 41.02908 22.38397 37055 ft 479 kts 144°
2026-05-09 10:14 40.97701 22.43913 37050 ft 480 kts 143°
2026-05-09 10:15 40.92513 22.49486 37044 ft 480 kts 143°
2026-05-09 10:15 40.87323 22.55053 37048 ft 481 kts 143°
2026-05-09 10:16 40.82120 22.60592 37053 ft 481 kts 143°
2026-05-09 10:16 40.76950 22.66075 37056 ft 481 kts 143°
2026-05-09 10:17 40.71746 22.71611 37044 ft 481 kts 143°
2026-05-09 10:17 40.66533 22.77140 37043 ft 481 kts 144°
2026-05-09 10:18 40.61305 22.82666 37049 ft 482 kts 144°
2026-05-09 10:18 40.58687 22.85427 36863 ft 483 kts 144°
2026-05-09 10:18 40.56067 22.88187 35494 ft 485 kts 143°
2026-05-09 10:18 40.53422 22.90969 33973 ft 488 kts 143°
2026-05-09 10:19 40.50771 22.93754 32248 ft 489 kts 143°
2026-05-09 10:19 40.48104 22.96546 30463 ft 491 kts 144°
2026-05-09 10:19 40.45261 22.99011 28673 ft 487 kts 154°
2026-05-09 10:19 40.42211 23.00826 27181 ft 476 kts 162°
2026-05-09 10:20 40.39141 23.02360 25839 ft 467 kts 162°
2026-05-09 10:20 40.36133 23.03865 24606 ft 458 kts 162°
2026-05-09 10:20 40.33184 23.05340 23399 ft 450 kts 162°
2026-05-09 10:20 40.30287 23.06785 22085 ft 442 kts 162°
2026-05-09 10:21 40.27438 23.08201 20866 ft 434 kts 163°
2026-05-09 10:21 40.24632 23.09591 20065 ft 429 kts 163°
2026-05-09 10:21 40.21876 23.10959 19662 ft 419 kts 163°
2026-05-09 10:21 40.19164 23.12303 19179 ft 414 kts 163°
2026-05-09 10:22 40.16517 23.13610 18690 ft 410 kts 163°
2026-05-09 10:22 40.13857 23.14923 18160 ft 407 kts 163°
2026-05-09 10:22 40.11222 23.16223 17627 ft 403 kts 163°
2026-05-09 10:22 40.08617 23.17504 17108 ft 398 kts 163°
2026-05-09 10:23 40.06034 23.18773 16593 ft 394 kts 163°
2026-05-09 10:23 40.03482 23.20031 16060 ft 391 kts 163°
2026-05-09 10:23 40.00945 23.21282 15537 ft 388 kts 163°
2026-05-09 10:23 39.98434 23.22518 15011 ft 385 kts 163°
2026-05-09 10:24 39.95938 23.23744 14484 ft 382 kts 162°
2026-05-09 10:24 39.93459 23.24958 13951 ft 380 kts 162°
2026-05-09 10:24 39.90994 23.26166 13366 ft 377 kts 162°
2026-05-09 10:24 39.88556 23.27365 12829 ft 372 kts 162°
2026-05-09 10:25 39.86147 23.28552 12281 ft 368 kts 162°
2026-05-09 10:25 39.83761 23.29723 11737 ft 364 kts 162°
2026-05-09 10:25 39.81428 23.30862 11184 ft 361 kts 162°
2026-05-09 10:25 39.79089 23.32005 10696 ft 357 kts 162°
2026-05-09 10:26 39.76820 23.33119 10553 ft 341 kts 162°
2026-05-09 10:26 39.74648 23.34188 10429 ft 327 kts 162°
2026-05-09 10:26 39.72565 23.35212 10308 ft 314 kts 163°
2026-05-09 10:26 39.70560 23.36195 10164 ft 303 kts 163°
2026-05-09 10:27 39.68609 23.37146 9969 ft 296 kts 163°
2026-05-09 10:27 39.66672 23.38085 9690 ft 299 kts 163°
2026-05-09 10:27 39.64723 23.39027 9285 ft 297 kts 163°
2026-05-09 10:27 39.62780 23.39966 8810 ft 298 kts 163°
2026-05-09 10:28 39.60860 23.40897 8459 ft 293 kts 162°
2026-05-09 10:28 39.58951 23.41828 8032 ft 292 kts 162°
2026-05-09 10:28 39.57054 23.42749 7618 ft 289 kts 162°
2026-05-09 10:28 39.55186 23.43657 6959 ft 286 kts 162°
2026-05-09 10:29 39.53334 23.44555 6290 ft 282 kts 162°
2026-05-09 10:29 39.51518 23.45435 5758 ft 277 kts 162°
2026-05-09 10:29 39.49722 23.46305 5293 ft 276 kts 162°
2026-05-09 10:29 39.47927 23.47175 4831 ft 276 kts 162°
2026-05-09 10:30 39.46142 23.48039 4400 ft 273 kts 162°
2026-05-09 10:30 39.44366 23.48899 3992 ft 271 kts 162°
2026-05-09 10:30 39.42597 23.49755 3559 ft 269 kts 162°
2026-05-09 10:30 39.40855 23.50600 3156 ft 267 kts 161°
2026-05-09 10:31 39.39120 23.51449 2699 ft 266 kts 161°
2026-05-09 10:31 39.37412 23.52290 2434 ft 257 kts 160°
2026-05-09 10:31 39.35787 23.53091 2314 ft 243 kts 160°
2026-05-09 10:31 39.34268 23.53839 2211 ft 230 kts 160°
2026-05-09 10:32 39.32816 23.54552 2123 ft 218 kts 161°
2026-05-09 10:32 39.31428 23.55220 2027 ft 207 kts 165°
2026-05-09 10:32 39.30055 23.55365 1937 ft 194 kts 191°
2026-05-09 10:32 39.28785 23.54872 1855 ft 189 kts 197°
2026-05-09 10:33 39.27537 23.54501 1824 ft 175 kts 191°
2026-05-09 10:33 39.26392 23.54179 1707 ft 163 kts 194°
2026-05-09 10:33 39.25373 23.53810 1630 ft 146 kts 199°
2026-05-09 10:33 39.24442 23.53378 1383 ft 140 kts 200°
2026-05-09 10:34 39.23529 23.52962 1127 ft 138 kts 199°
2026-05-09 10:34 39.21717 23.52137 774 ft 137 kts 199°
2026-05-09 10:34 39.20821 23.51739 592 ft 135 kts 198°
2026-05-09 10:35 39.19939 23.51359 409 ft 133 kts 197°
2026-05-09 10:35 39.19082 23.50977 204 ft 131 kts 197°
2026-05-09 10:35 39.18226 23.50594 61 ft 126 kts 199°
2026-05-09 10:35 39.17596 23.50318 41 ft 56 kts 199°
2026-05-09 10:36 39.17419 23.50241 37 ft 12 kts 199°
2026-05-09 10:36 39.17317 23.50195 31 ft 19 kts 199°
2026-05-09 10:36 39.17172 23.50128 22 ft 24 kts 200°
2026-05-09 10:36 39.17088 23.50090 18 ft 17 kts 198°
2026-05-09 10:37 39.17022 23.50068 12 ft 7 kts 273°
2026-05-09 10:37 39.17048 23.50062 15 ft 4 kts 20°
2026-05-09 10:37 39.17146 23.50117 21 ft 26 kts 19°
2026-05-09 10:37 39.17395 23.50225 36 ft 29 kts 20°
2026-05-09 10:38 39.17517 23.50280 40 ft 23 kts 17°
2026-05-09 10:38 39.17658 23.50338 39 ft 21 kts
2026-05-09 10:38 39.17721 23.50270 39 ft 9 kts 326°
2026-05-09 10:38 39.17803 23.50290 39 ft 15 kts 20°
2026-05-09 10:39 39.17907 23.50331 40 ft 13 kts 21°
2026-05-09 10:39 39.17940 23.50293 38 ft 6 kts 297°
2026-05-09 10:39 39.17951 23.50251 37 ft 0 kts 288°